Terminal Aerodrome Forecast
Issued by NWS Jackson, MS

Home | Current Version | Previous Version | Text Only | Print | Product List | Glossary On
Versions: 1 2 3 4 5 6 7 8 9 10 11 12 13
000
FTUS44 KJAN 040935 AAA
TAFGLH
TAF AMD
KGLH 040935Z 0410/0506 09003KT P6SM SKC
     FM041030 00000KT 5SM BR SKC
     FM041400 07005KT P6SM SCT060=

USA.gov is the U.S. government's official web portal to all federal, state and local government web resources and services.